Location: Berlin
(42.3812°N, 71.6370°W)
Time: 04:49:05
(UTC+00:00)

PAYLOAD A - Pass Details

Date: 15 November 2025
Orbit: 690 x 828 km, 98.6° (Epoch: 09 December)

Event Time Altitude Azimuth Distance (km) Brightness Sun altitude
Rises 09:37:40 0° 7° (N) 3,360 7.3 -22.1°
Reaches altitude 10° 09:40:07 10° 1° (N) 2,411 6.5 -21.7°
Maximum altitude 09:45:10 45° 291° (WNW) 1,083 4.3 -20.8°
Enters shadow 09:45:52 42° 268° (W) 1,119 4.3 -20.6°
